Worthington, MN

8:04 AM CDT on May 28, 2017 (GMT -0500)
Worthington Municipal

Weather History for KOTG - September, 2013

Change the Weather History Date:

Friday, September 27, 2013

  Actual Average Record
Temperature  
Mean Temperature 74 °F -  
Max Temperature 84 °F 64 °F 88 °F (1974)
Min Temperature 64 °F 42 °F 25 °F (1984)
Cooling Degree Days 9    
Growing Degree Days 24 (Base 50)    
Moisture  
Dew Point 56 °F    
Average Humidity 56    
Maximum Humidity 77    
Minimum Humidity 39    
Precipitation  
Precipitation 0.10 in - - ()
Sea Level Pressure  
Sea Level Pressure 29.81 in    
Wind  
Wind Speed 15 mph (SSE)    
Max Wind Speed 28 mph    
Max Gust Speed 34 mph    
Visibility 10 miles    
Events Thunderstorm    
Averages and records for this station are not official NWS values.
T = Trace of Precipitation, MM = Missing Value Source: NWS Daily Summary

Daily Weather History Graph

Daily Weather History Graph

Search for Another Location

Airport or City:

Trip Planner

Search our weather history database for the weather conditions in past years. The results will help you decide how hot, cold, wet, or windy it might be!

Date:

Astronomy

Sep. 27, 2013 Rise Set
Actual Time 7:15 AM CDT 7:10 PM CDT
Civil Twilight 6:46 AM CDT 7:38 PM CDT
Nautical Twilight 6:13 AM CDT 8:11 PM CDT
Astronomical Twilight 5:39 AM CDT 8:45 PM CDT
Moon 12:01 AM CDT (9/27) 2:59 PM CDT (9/27)
Length of Visible Light 12h 51m
Length of Day
11h 54m
Last Quarter, 45% of the Moon is Illuminated
Sep 27
Last Quarter
Oct 4
New
Oct 11
First Quarter
Oct 18
Full
Oct 26
Last Quarter

Hourly Weather History & Observations

Time (CDT) Temp. Heat Index Dew Point Humidity Pressure Visibility Wind Dir Wind Speed Gust Speed Precip Events Conditions
12:15 AM 69.8 °F - 55.4 °F 60% 29.85 in 10.0 mi SSE 15.0 mph 23.0 mph N/A   Clear
12:35 AM 69.8 °F - 55.4 °F 60% 29.85 in 10.0 mi SSE 13.8 mph 20.7 mph N/A   Clear
12:55 AM 69.8 °F - 55.4 °F 60% 29.85 in 10.0 mi SSE 13.8 mph 20.7 mph N/A   Clear
1:15 AM 69.8 °F - 55.4 °F 60% 29.85 in 10.0 mi SSE 12.7 mph 18.4 mph N/A   Clear
1:35 AM 69.8 °F - 55.4 °F 60% 29.85 in 10.0 mi SSE 15.0 mph 20.7 mph N/A   Mostly Cloudy
1:55 AM 69.8 °F - 55.4 °F 60% 29.85 in 10.0 mi SSE 15.0 mph 20.7 mph N/A   Partly Cloudy
2:15 AM 69.8 °F - 55.4 °F 60% 29.85 in 10.0 mi SSE 15.0 mph 21.9 mph N/A   Clear
2:35 AM 69.8 °F - 55.4 °F 60% 29.85 in 10.0 mi SSE 16.1 mph 21.9 mph N/A   Clear
2:55 AM 69.8 °F - 55.4 °F 60% 29.84 in 10.0 mi SSE 13.8 mph 23.0 mph N/A   Clear
3:15 AM 68.0 °F - 55.4 °F 64% 29.83 in 10.0 mi SSE 13.8 mph 21.9 mph N/A   Clear
3:35 AM 68.0 °F - 55.4 °F 64% 29.82 in 10.0 mi SSE 18.4 mph 24.2 mph N/A   Clear
3:55 AM 68.0 °F - 55.4 °F 64% 29.82 in 10.0 mi SSE 13.8 mph 20.7 mph N/A   Clear
4:15 AM 68.0 °F - 55.4 °F 64% 29.82 in 10.0 mi SSE 17.3 mph 23.0 mph N/A   Clear
4:35 AM 68.0 °F - 55.4 °F 64% 29.83 in 10.0 mi South 17.3 mph 23.0 mph N/A   Partly Cloudy
4:55 AM 68.0 °F - 55.4 °F 64% 29.84 in 10.0 mi South 15.0 mph 19.6 mph N/A   Mostly Cloudy
5:15 AM 66.2 °F - 55.4 °F 68% 29.84 in 10.0 mi South 17.3 mph 24.2 mph N/A   Overcast
5:35 AM 64.4 °F - 57.2 °F 77% 29.84 in 8.0 mi SSE 10.4 mph 20.7 mph 0.03 in   Mostly Cloudy
5:55 AM 64.4 °F - 57.2 °F 77% 29.83 in 10.0 mi SSE 10.4 mph - 0.06 in   Overcast
6:15 AM 66.2 °F - 57.2 °F 73% 29.82 in 10.0 mi SE 15.0 mph 20.7 mph N/A Thunderstorm Mostly Cloudy
6:35 AM 64.4 °F - 57.2 °F 77% 29.81 in 10.0 mi SSE 13.8 mph - 0.01 in Thunderstorm Thunderstorm
6:55 AM 64.4 °F - 57.2 °F 77% 29.81 in 10.0 mi SSE 15.0 mph 21.9 mph 0.01 in Thunderstorm Partly Cloudy
7:15 AM 66.2 °F - 57.2 °F 73% 29.82 in 10.0 mi SSE 13.8 mph 23.0 mph N/A   Mostly Cloudy
7:35 AM 66.2 °F - 57.2 °F 73% 29.83 in 10.0 mi SSE 11.5 mph 17.3 mph N/A   Overcast
7:55 AM 66.2 °F - 57.2 °F 73% 29.84 in 8.0 mi SSE 12.7 mph 21.9 mph 0.02 in Thunderstorm Thunderstorm
8:15 AM 66.2 °F - 57.2 °F 73% 29.83 in 10.0 mi SSE 13.8 mph - N/A   Mostly Cloudy
8:35 AM 66.2 °F - 57.2 °F 73% 29.84 in 10.0 mi SSE 12.7 mph 18.4 mph N/A   Scattered Clouds
8:55 AM 66.2 °F - 57.2 °F 73% 29.84 in 10.0 mi SSE 13.8 mph - 0.01 in   Scattered Clouds
9:15 AM 66.2 °F - 57.2 °F 73% 29.84 in 10.0 mi SSE 12.7 mph 18.4 mph N/A   Scattered Clouds
9:35 AM 66.2 °F - 57.2 °F 73% 29.85 in 10.0 mi SSE 12.7 mph 19.6 mph N/A   Scattered Clouds
9:55 AM 66.2 °F - 57.2 °F 73% 29.84 in 10.0 mi SSE 15.0 mph - N/A   Partly Cloudy
10:15 AM 68.0 °F - 57.2 °F 68% 29.84 in 10.0 mi South 17.3 mph 21.9 mph N/A   Clear
10:35 AM 68.0 °F - 57.2 °F 68% 29.83 in 10.0 mi SSE 12.7 mph 19.6 mph N/A   Clear
10:55 AM 69.8 °F - 57.2 °F 64% 29.83 in 10.0 mi SSE 15.0 mph 23.0 mph N/A   Clear
11:15 AM 71.6 °F - 57.2 °F 60% 29.83 in 10.0 mi SSE 16.1 mph 21.9 mph N/A   Clear
11:35 AM 73.4 °F - 59.0 °F 61% 29.82 in 10.0 mi SSE 16.1 mph 28.8 mph N/A   Clear
11:55 AM 75.2 °F - 59.0 °F 57% 29.81 in 10.0 mi South 18.4 mph 26.5 mph N/A   Clear
12:15 PM 73.4 °F - 57.2 °F 57% 29.80 in 10.0 mi SSE 16.1 mph 27.6 mph N/A   Clear
12:35 PM 78.8 °F - 57.2 °F 47% 29.80 in 10.0 mi South 23.0 mph 28.8 mph N/A   Clear
12:55 PM 78.8 °F - 57.2 °F 47% 29.80 in 10.0 mi South 18.4 mph 31.1 mph N/A   Clear
1:15 PM 78.8 °F - 59.0 °F 51% 29.79 in 10.0 mi South 19.6 mph 27.6 mph N/A   Clear
1:35 PM 82.4 °F 82.0 °F 57.2 °F 42% 29.79 in 10.0 mi South 23.0 mph 34.5 mph N/A   Clear
1:55 PM 82.4 °F 82.0 °F 57.2 °F 42% 29.78 in 10.0 mi South 23.0 mph 34.5 mph N/A   Clear
2:15 PM 84.2 °F 83.5 °F 57.2 °F 40% 29.77 in 10.0 mi South 18.4 mph 28.8 mph N/A   Clear
2:35 PM 82.4 °F 81.7 °F 55.4 °F 39% 29.77 in 10.0 mi South 27.6 mph 34.5 mph N/A   Clear
2:55 PM 82.4 °F 81.7 °F 55.4 °F 39% 29.79 in 10.0 mi South 20.7 mph 34.5 mph N/A   Clear
3:15 PM 82.4 °F 82.0 °F 57.2 °F 42% 29.79 in 10.0 mi South 16.1 mph 27.6 mph N/A   Clear
3:35 PM 82.4 °F 82.0 °F 57.2 °F 42% 29.79 in 10.0 mi South 16.1 mph 23.0 mph N/A   Clear
3:55 PM 82.4 °F 81.7 °F 55.4 °F 39% 29.79 in 10.0 mi South 15.0 mph 26.5 mph N/A   Clear
4:15 PM 82.4 °F 82.0 °F 57.2 °F 42% 29.79 in 10.0 mi South 15.0 mph 20.7 mph N/A   Clear
4:35 PM 82.4 °F 81.7 °F 55.4 °F 39% 29.79 in 10.0 mi South 16.1 mph 23.0 mph N/A   Clear
4:55 PM 82.4 °F 81.7 °F 55.4 °F 39% 29.79 in 10.0 mi South 12.7 mph 25.3 mph N/A   Clear
5:15 PM 82.4 °F 81.7 °F 55.4 °F 39% 29.79 in 10.0 mi South 12.7 mph - N/A   Clear
5:35 PM 82.4 °F 81.7 °F 55.4 °F 39% 29.80 in 10.0 mi South 12.7 mph 21.9 mph N/A   Clear
5:55 PM 80.6 °F 80.5 °F 55.4 °F 42% 29.80 in 10.0 mi South 11.5 mph - N/A   Clear
6:15 PM 80.6 °F 80.5 °F 55.4 °F 42% 29.79 in 10.0 mi South 8.1 mph - N/A   Clear
6:35 PM 80.6 °F 80.5 °F 55.4 °F 42% 29.79 in 10.0 mi South 11.5 mph 18.4 mph N/A   Clear
6:55 PM 80.6 °F 80.3 °F 53.6 °F 39% 29.79 in 10.0 mi South 13.8 mph 20.7 mph N/A   Clear
7:15 PM 78.8 °F - 53.6 °F 42% 29.79 in 10.0 mi South 11.5 mph - N/A   Clear
7:35 PM 78.8 °F - 53.6 °F 42% 29.79 in 10.0 mi SSE 9.2 mph - N/A   Clear
7:55 PM 77.0 °F - 53.6 °F 44% 29.79 in 10.0 mi SSE 12.7 mph 18.4 mph N/A   Clear
8:15 PM 77.0 °F - 55.4 °F 47% 29.79 in 10.0 mi SSE 10.4 mph 17.3 mph N/A   Scattered Clouds
8:35 PM 75.2 °F - 55.4 °F 50% 29.80 in 10.0 mi SSE 12.7 mph 17.3 mph N/A   Mostly Cloudy
8:55 PM 75.2 °F - 55.4 °F 50% 29.80 in 10.0 mi SSE 13.8 mph 18.4 mph N/A   Overcast
9:15 PM 75.2 °F - 55.4 °F 50% 29.80 in 10.0 mi SSE 12.7 mph 16.1 mph N/A   Mostly Cloudy
9:35 PM 75.2 °F - 55.4 °F 50% 29.80 in 10.0 mi SSE 16.1 mph 27.6 mph N/A   Partly Cloudy
9:55 PM 75.2 °F - 55.4 °F 50% 29.80 in 10.0 mi SSE 16.1 mph 19.6 mph N/A   Clear
10:15 PM 73.4 °F - 55.4 °F 53% 29.80 in 10.0 mi SSE 10.4 mph 18.4 mph N/A   Clear
10:35 PM 73.4 °F - 55.4 °F 53% 29.79 in 10.0 mi SSE 13.8 mph 19.6 mph N/A   Clear
10:55 PM 71.6 °F - 55.4 °F 57% 29.78 in 10.0 mi SSE 15.0 mph 20.7 mph N/A   Clear
11:15 PM 71.6 °F - 55.4 °F 57% 29.77 in 10.0 mi SSE 12.7 mph 21.9 mph N/A   Clear
11:35 PM 71.6 °F - 55.4 °F 57% 29.76 in 10.0 mi SSE 13.8 mph 23.0 mph N/A   Clear
11:55 PM 71.6 °F - 55.4 °F 57% 29.75 in 10.0 mi SSE 16.1 mph 21.9 mph N/A   Clear